Skip Page Navigation
NASA JPL Caltech
NASA Logo - Jet Propulsion Laboratory + View the NASA Portal
+ Center for Near-Earth Object Studies
JPL Home Earth Solar System Stars & Galaxies Technology
JPL Solar System Dynamics
BODIES ORBITS EPHEMERIDES TOOLS PHYSICAL DATA DISCOVERY FAQ SITE MAP
IMPORTANT: The SSD Announcement email list is now available. Major changes are coming in the near future, including possible hostname and/or URL changes. To be notified of such changes, subscribe to this email list.

Please visit this page for more details.


JPL Small-Body Database Browser
Search: [ help ]  
413040 (2001 OS75)
Classification: Main-belt Asteroid          SPK-ID: 2413040
Ephemeris | Orbit Diagram | Orbital Elements | Mission Design | Physical Parameters | Discovery Circumstances ]

[ show orbit diagram ]
Orbital Elements at Epoch 2459000.5 (2020-May-31.0) TDB
Reference: JPL 12 (heliocentric ecliptic J2000)
 Element Value Uncertainty (1-sigma)   Units 
e .200347230005068 5.4462e-08  
a 2.603131817411742 2.2331e-08 au
q 2.081601568455241 1.3821e-07 au
i 8.096350759690619 6.7795e-06 deg
node 76.80712198303139 7.1394e-05 deg
peri 216.6548899278515 7.6172e-05 deg
M 186.6521903389917 2.8893e-05 deg
tp 2459739.183716059360
(2022-Jun-08.68371606)
0.00012686 TDB
period 1534.061135825159
4.20
1.974e-05
5.405e-08
d
yr
n .234671221109033 3.0197e-09 deg/d
Q 3.124662066368242 2.6805e-08 au
  Orbit Determination Parameters
   # obs. used (total)      103  
   data-arc span      6263 days (17.15 yr)  
   first obs. used      2001-07-24  
   last obs. used      2018-09-16  
   planetary ephem.      DE431  
   SB-pert. ephem.      SB431-N16  
   condition code      0  
   norm. resid. RMS      .71864  
   source      ORB  
   producer      Otto Matic  
   solution date      2018-Oct-03 13:10:16  

Additional Information
 Earth MOID = 1.07184 au 
 Jupiter MOID = 2.07998 au 
 T_jup = 3.371 
[ show covariance matrix ]

Ephemeris | Orbit Diagram | Orbital Elements | Mission Design | Physical Parameters | Discovery Circumstances ]

Physical Parameter Table
Parameter Symbol Value Units Sigma Reference Notes
absolute magnitude H 17.1   n/a MPO455939  

413040 (2001 OS75)          Discovered 2001-Jul-24 by NEAT at Palomar
Reference: Last Updated: 2014-11-10

Alternate Designations
 2001 OS75 = 2006 VE132 
Ephemeris | Orbit Diagram | Orbital Elements | Mission Design | Physical Parameters | Discovery Circumstances ]
ABOUT SSD CREDITS/AWARDS PRIVACY/COPYRIGHT GLOSSARY LINKS
FirstGov 2020-May-30 09:47 UT
(server date/time)  
NASA Home Page
Site Manager:   Ryan S. Park
Webmaster  Alan B. Chamberlin